Flag for U.S.A. Weather past 2 weeks in Cincinnati, Ohio, U.S.A.

Now
72 °F

Sunny.


Feels Like: 77 °F
Forecast: 58 / 66 °F
Wind: 7 mph from East

Location: Cincinnati Municipal Airport Lunken Field

Current Time: Apr 18, 2015 at 8:46:28 PM

Latest Report: Apr 18, 2015 at 7:53 PM


Visibility: 10 mi

Pressure: 29.95 "Hg

Humidity: 43%

Dew point: 48 °F

Location of CincinnatiLocation

Historic Weather in Cincinnati — Graph

°F

Cincinnati temperature yesterday

Maximum temperature yesterday: 74 °F (at 4:53 PM)
Minimum temperature yesterday: 53 °F (at 11:53 PM)
Average temperature yesterday: 64 °F

Past Weeks' High & Low Weather Summary

 TemperatureHumidityPressure
High79 °F (Apr 13, 4:53 PM)100% (Apr 5, 6:53 AM)30.37 "Hg (Apr 5, 6:53 AM)
Low31 °F (Apr 5, 7:53 AM)21% (Apr 5, 4:53 PM)29.67 "Hg (Apr 10, 4:53 AM)
Average57 °F71%30.10 "Hg
* Reported Apr 3 6:53 PM — Apr 18 6:53 PM, Cincinnati, Weather by CustomWeather, © 2015

Note: Actual official high and low records may vary slightly from our data, if they occured in-between our weather recording intervals... More about our weather records

Advertising

Cincinnati weather history for previous 24 hours

 ConditionsComfort  
Time TempWeatherWind HumidityBarometerVisibility
6:53 PM
Sat, Apr 18
74 °FSunny.10 mph40%29.95 "Hg10 mi
5:53 PM77 °FSunny.13 mph36%29.96 "Hg10 mi
4:53 PM77 °FSunny.12 mph37%29.96 "Hg10 mi
3:53 PM77 °FSunny.9 mph37%30.00 "Hg10 mi
2:53 PM77 °FSunny.N/A35%30.01 "Hg10 mi
1:53 PM76 °FSunny.6 mph37%30.02 "Hg10 mi
12:53 PM75 °FSunny.8 mph43%30.04 "Hg10 mi
11:53 AM73 °FSunny.6 mph43%30.05 "Hg10 mi
10:53 AM67 °FSunny.No wind53%30.05 "Hg10 mi
9:53 AM62 °FSunny.No wind65%30.06 "Hg10 mi
8:53 AM55 °FSunny.No wind87%30.07 "Hg10 mi
7:53 AM49 °FClear.No wind100%30.06 "Hg10 mi
6:53 AM47 °FClear.No wind100%30.05 "Hg10 mi
5:53 AM49 °FClear.No wind97%30.04 "Hg7 mi
4:53 AM49 °FClear.No wind100%30.05 "Hg8 mi
3:53 AM50 °FClear.3 mph100%30.06 "Hg9 mi
2:53 AM52 °FClear.No wind97%30.05 "Hg10 mi
1:53 AM52 °FClear.No wind93%30.03 "Hg10 mi
12:53 AM53 °FClear.No wind93%30.03 "Hg10 mi
11:53 PM
Fri, Apr 17
53 °FClear.No wind93%30.04 "Hg10 mi
10:53 PM57 °FClear.No wind72%30.04 "Hg10 mi
9:53 PM59 °FClear.No wind75%30.04 "Hg10 mi
8:53 PM63 °FSunny.No wind70%30.01 "Hg10 mi
Weather by CustomWeather, © 2015

See weather overviewHow to use our weather pages